Location: Blanot
(47.1713°N, 4.2340°E)
Time: 10:56:49
(UTC+00:00)

SL-16 R/B - Pass Details

Date: 14 July 2020
Orbit: 842 x 846 km, 71.0° (Epoch: 05 August)

Event Time Altitude Azimuth Distance (km) Brightness Sun altitude
Rises 02:02:11 0° 337° (NNW) 3,418 5.9 -14.9°
Reaches altitude 10° 02:05:00 10° 349° (N) 2,479 5.3 -14.7°
Maximum altitude 02:09:52 28° 48° (NE) 1,532 4.4 -14.2°
Drops below altitude 10° 02:14:43 10° 107° (ESE) 2,467 4.8 -13.8°
Sets 02:17:30 0° 119° (ESE) 3,398 5.4 -13.5°
